Preview of NWS' New Version of Forecast
This preview is not operational and should not be used for support decisions.

Regional Weather Roundup (RWR)

Issued by National Weather Service (NWS)

                            
000
ASUS42 KTBW 190518
RWRFL 
FLORIDA REGIONAL WEATHER ROUNDUP
NATIONAL WEATHER SERVICE TAMPA BAY RUSKIN FL
100 AM EDT MON AUG 19 2019

NOTE: "FAIR" INDICATES FEW OR NO CLOUDS BELOW 12,000 FEET WITH NO
SIGNIFICANT WEATHER AND/OR OBSTRUCTIONS TO VISIBILITY.

FLZ001>010-012>015-112-114-115-190600-
PANHANDLE FLORIDA
  
CITY           SKY/WX    TMP DP  RH WIND       PRES   REMARKS
PENSACOLA      FAIR      82  79  90 SW3       30.00S                  
PENSACOLA NAS  FAIR      83  78  85 SW8       30.00S                  
MILTON NAS     FAIR      79  76  90 SW5       30.01R                  
CRESTVIEW      FAIR      78  74  87 CALM      30.03S                  
MARY ESTHER    MOCLDY    80  75  83 CALM      29.99F                  
TRI COUNTY     FAIR      74  72  93 SW5       30.02F                  
PANAMA CITY    FAIR      75  73  93 CALM      30.02S                  
TYNDALL AFB    DRIZZLE   77  75  94 W7        30.00F                  
APALACHICOLA   FAIR      80  76  87 W8        30.02F                  

STATION/POSITION SKY/WX   TEMP    WIND        PRES    WAVE   SWELL
                          AIR SEA DIR/SP/G            HT/PER HT/PER
                          (F)     (DEG/KT/KT) (MB)    (FT/S) (FT/S)
30.1N   87.6W              85 87  220/ 14/ 16 1016.2F   4/ 5
29.2N   88.2W              82 86  190/ 14/ 17 1016.6F   4/ 6   2/11
28.8N   86.0W                 85  220/ 14/ 17 1017.4F   4/ 7
PANAMA CITY BEAC           77 86   20/  3/  5 1017.3F
TOWER C                    81     230/ 17/ 19 1017.5F
28.5N   84.5W              83     220/ 14/ 16 1018.7F   4/ 5   2/ 6

$$
FLZ011-016>038-118-127-128-134-139-239-190600-
NORTH FLORIDA
  
CITY           SKY/WX    TMP DP  RH WIND       PRES   REMARKS
MARIANNA       FAIR      77  76  96 W9        30.00F                  
TALLAHASSEE    FAIR      77  75  93 W8        30.02F                  
PERRY          CLOUDY    78  77  97 S6        30.05F                  
LIVE OAK       CLOUDY    75  75 100 VRB3      30.06F                  
CROSS CITY     FAIR      75  75  99 S3        30.08F                  
LAKE CITY      FAIR      72  72 100 S3        30.09R                  
GAINESVILLE    FAIR      74  72  93 SW5       30.12F                  
WILLISTON      FAIR      73  73  99 CALM      30.10F                  
MAYPORT NAS    FAIR      74  72  93 S5        30.09F                  
JACKSONVILLE   MOCLDY    75  73  93 SE5       30.07F                  
JAX NAS        MOCLDY    77  71  82 S6        30.09F                  
JAX CECIL      FAIR      73  72  94 CALM      30.08F                  
FERNANDINA BEA FAIR      76  73  90 S6        30.09S                  
ST AUGUSTINE   FAIR      74  72  93 S5        30.11S                  
PALM COAST     FAIR      74  71  88 CALM      30.10F                  

STATION/POSITION SKY/WX   TEMP    WIND        PRES    WAVE   SWELL
                          AIR SEA DIR/SP/G            HT/PER HT/PER
                          (F)     (DEG/KT/KT) (MB)    (FT/S) (FT/S)
SHELL POINT      NOT AVBL
KEATON BEACH               80     220/ 15/ 16 1017.6F
CEDAR KEY                  80     290/  4/  5 1019.2R
FERNANDINA                 80 81              1019.5F
30.7N   81.3W                 81                N/A     2/10
MAYPORT                    76 82  190/  3/  4 1019.5F
31.4N   80.9W              79 82  230/ 16/ 17 1018.0R   3/ 4   2/ 8
ST AUGUSTINE               75 81  230/  4/  5 1019.3F

$$
FLZ040-043>046-052-053-057-058-063-144-190600-
INTERIOR CENTRAL FLORIDA
  
CITY           SKY/WX    TMP DP  RH WIND       PRES   REMARKS
OCALA          FAIR      74  73  97 CALM      30.11S                  
LEESBURG       FAIR      76  72  87 SE3       30.12S                  
SANFORD        FAIR      77  72  84 CALM      30.10F                  
ORLANDO EXEC   FAIR      77  71  82 CALM      30.11F                  
ORLANDO INTL   CLOUDY    76  73  91 CALM      30.10F                  
KISSIMMEE      FAIR      79  73  82 NW3       30.11F                  
WINTER HAVEN   FAIR      80  73  79 NE3       30.12S                  
LAKELAND       FAIR      77  72  83 E3        30.12S                  
BARTOW           N/A     79  73  83 CALM      30.10F                  
SEBRING        FAIR      75  72  88 NE3       30.10F                  
OKEECHOBEE     FAIR      75  72  88 CALM      30.09F                  

$$
FLZ041-047-054-059-064-141-147-190600-
EAST CENTRAL FLORIDA
  
CITY           SKY/WX    TMP DP  RH WIND       PRES   REMARKS
DAYTONA BEACH  MOCLDY    76  74  93 W3        30.10F                  
DELAND         FAIR      77  70  78 CALM      30.11S                  
JFK SPACE CTR  FAIR     N/A N/A N/A CALM        N/A                   
CAPE CANAVERAL FAIR      79  75  89 MISG      30.08F                  
PATRICK AFB    FAIR      80  77  92 N3        30.09F                  
MELBOURNE      FAIR      80  73  79 NW3       30.09S                  
VERO BEACH     FAIR      81  76  84 SE3       30.09F                  
FT PIERCE      LGT RAIN  78  75  90 CALM      30.08F                  

STATION/POSITION SKY/WX   TEMP    WIND        PRES    WAVE   SWELL
                          AIR SEA DIR/SP/G            HT/PER HT/PER
                          (F)     (DEG/KT/KT) (MB)    (FT/S) (FT/S)
28.5N   80.2W              84 85  160/  6/  8 1018.8F   2/ 7   2/ 7
28.9N   78.5W              85 86  130/  6/  8 1019.6S   2/ 7   2/ 7
TRIDENT PIER               79 81  340/  4/  5 1020.6F
28.4N   80.5W                 78                N/A     1/ 7
27.5N   80.2W                 84                N/A     1/ 9

$$
FLZ050-056-061-142-242-148-248-149-249-151-251-155-255-
160-260-190600-
WEST CENTRAL FLORIDA
  
CITY           SKY/WX    TMP DP  RH WIND       PRES   REMARKS
CRYSTAL RIVER  FAIR      73  73 100 CALM      30.10F                  
INVERNESS      FAIR      72  72 100 CALM      30.11S                  
BROOKSVILLE    FAIR      72  71  97 SE6       30.12R FOG              
CLEARWATER AIR FAIR      75  73  94 E3        30.11R                  
ST PETE CLEARW FAIR      79  74  84 SE8       30.11R                  
TAMPA INTL     FAIR      78  74  87 E5        30.12R                  
PLANT CITY     FAIR      77  77 100 NE3       30.13S                  
MACDILL AFB    FAIR      78  74  88 E6        30.10S                  
PETER O KNIGHT CLOUDY    79  79 100 CALM      30.11S                  
ST PETERSBURG  FAIR      81  76  84 E7        30.09S                  
SARASOTA       FAIR      78  73  84 NE3       30.08F                  
VENICE         FAIR      79  75  89 NE5       30.10S                  

STATION/POSITION SKY/WX   TEMP    WIND        PRES    WAVE   SWELL
                          AIR SEA DIR/SP/G            HT/PER HT/PER
                          (F)     (DEG/KT/KT) (MB)    (FT/S) (FT/S)
27.3N   84.2W                 84                N/A     3/ 6
CLEARWATER BEACH           78 85   50/  3/  4 1019.4R
MIDDLE TAMPA BAY           80     100/  7/  9 1019.6F
VENICE                     79 85   40/  4/  5 1018.9F

$$
FLZ066-069-070-075>078-162-262-165-265-190600-
SOUTHWEST FLORIDA AND KEYS
  
CITY           SKY/WX    TMP DP  RH WIND       PRES   REMARKS
PUNTA GORDA    FAIR      76  74  93 NE5       30.10F                  
FT MYERS       FAIR      77  72  84 E5        30.07F                  
SOUTHWEST INTL FAIR      78  72  81 NE6       30.08F                  
IMMOKALEE      MOCLDY    77  73  88 CALM      30.07S                  
MARATHON       FAIR      86  75  69 E9        30.04F HX  95           
KEY WEST NAS   FAIR      88  75  65 E9        30.05F HX  97           
KEY WEST INTL  FAIR      86  74  67 E8        30.05F                  

STATION/POSITION SKY/WX   TEMP    WIND        PRES    WAVE   SWELL
                          AIR SEA DIR/SP/G            HT/PER HT/PER
                          (F)     (DEG/KT/KT) (MB)    (FT/S) (FT/S)
NAPLES                     80 87              1018.6F
26.0N   85.6W              85 85   90/  8/ 10 1018.2F   2/ 5   2/ 5
DRY TORTUGAS               87     100/ 14/ 15 1017.8F
SAND KEY                   86      90/ 14/ 18 1016.3
SOMBRERO KEY               86      70/ 13/ 16 1017.4
LONG KEY                   87                 1016.4

$$
FLZ067-068-071>074-168-172>174-190600-
SOUTHEAST FLORIDA 
  
CITY           SKY/WX    TMP DP  RH WIND       PRES   REMARKS
W PALM BEACH   FAIR      84  75  74 E6        30.08F                  
FT LAUDER-EXEC FAIR      83  74  74 E7        30.07F                  
FT LAUDERDALE  FAIR      84  72  67 E9        30.07S                  
POMPANO BEACH  FAIR      86  73  65 E7        30.08S                  
PEMBROKE PINES FAIR      84  73  69 E5        30.09S                  
OPA LOCKA      FAIR      83  74  74 E7        30.08S                  
MIAMI          FAIR      85  73  67 E7        30.07F                  
WEST KENDALL   FAIR      81  74  79 E5        30.07F                  
HOMESTEAD      FAIR      83  75  75 E9        30.06F                  

STATION/POSITION SKY/WX   TEMP    WIND        PRES    WAVE   SWELL
                          AIR SEA DIR/SP/G            HT/PER HT/PER
                          (F)     (DEG/KT/KT) (MB)    (FT/S) (FT/S)
VIRGINIA KEY               86 90   70/ 10/ 13 1018.0
LAKE WORTH                        110/  8/ 11   N/A
FOWEY ROCKS                85 86   80/ 12/ 13 1018.4F
SETTLEMENT POINT           85     110/ 10/ 13 1018.9F

$$